Location: Suzhou
(31.3110°N, 120.6180°E)
Time: 13:59:29
(UTC+08:00)

FO-29 - Pass Details

Date: 28 April 2026
Orbit: 800 x 1320 km, 98.5° (Epoch: 15 May)

Event Time Altitude Azimuth Distance (km) Brightness Sun altitude
Rises 20:04:42 0° 11° (N) 3,988 13.0 -18.4°
Reaches altitude 10° 20:07:25 10° 11° (N) 2,951 12.3 -18.9°
Maximum altitude 20:14:03 82° 285° (WNW) 1,005 9.6 -20.1°
Drops below altitude 10° 20:19:51 10° 197° (SSW) 2,589 11.6 -21.2°
Sets 20:22:06 0° 197° (SSW) 3,470 12.2 -21.6°
